Terminal Aerodrome Forecast
Issued by NWS

Home | Current Version | Previous Version | Graphics & Text | Print | Product List | Glossary On
Versions: 1 2 3 4 5 6 7 8 9 10 11 12 13 14 15 16 17 18 19 20 21 22 23 24 25 26 27 28 29 30
000
FTUS43 KLOT 081700
TAFDPA
TAF
KDPA 081734Z 0818/0918 28014G22KT P6SM BKN050
     FM090100 28007KT P6SM FEW050
     FM091400 33008KT P6SM SKC=

USA.gov is the U.S. government's official web portal to all federal, state and local government web resources and services.